Temp
22 23 22 19 20 21 22 22 23 22 22 22 21 21 21 21 20 20 20 19 19 19 18 18 18 18 18 18 18 18 18 18 18 18 17 17 17 17 16 16 17 17 16
24 23 23 21 21 21 21 22 22 22 21 21 21 21 20 20 20 20 19 18 18 17 17 17 17 17 18 18 18 18 17 17 18 17 17 17 16 16 16 17 16 17 16
24 23 23 21 21 21 21 22 22 21 21 21 20 20 20 20 20 19 18 18 17 17 17 17 17 16 18 18 18 17 17 17 17 17 17 16 15 15 16 17 17 17 17
23 22 21 21 21 21 21 22 21 21 21 20 20 20 20 20 19 19 18 17 17 17 17 17 16 18 18 18 18 17 17 17 17 16 16 15 14 14 15 16 17 17 16
20 20 20 21 21 21 21 21 21 21 21 21 20 20 20 20 19 19 18 18 17 17 16 16 18 18 18 18 18 17 16 16 17 16 15 15 14 15 15 15 16 16 17
21 20 21 21 21 21 21 20 20 21 21 20 20 20 20 20 19 18 18 18 17 17 16 17 17 18 18 18 17 17 16 16 16 16 15 14 14 15 14 14 15 15 15
21 23 23 23 22 21 21 20 20 20 20 20 20 19 19 18 18 18 18 17 17 16 18 17 17 17 18 18 17 17 16 16 16 16 15 14 14 14 14 13 13 14 14
20 20 20 22 22 21 20 20 20 20 19 19 19 19 18 17 18 18 18 18 16 18 17 17 17 17 17 17 16 17 17 17 16 15 14 13 13 13 13 13 12 12 13
20 19 18 19 21 20 20 20 20 19 19 19 19 18 18 18 18 18 18 19 18 18 17 17 17 18 17 17 17 17 17 16 16 15 14 13 13 13 13 12 12 11 11
19 20 20 18 19 19 19 20 19 19 18 18 18 18 18 17 17 17 18 18 18 17 17 17 17 17 17 17 17 17 16 16 16 15 13 13 13 13 12 12 11 11 11
18 19 19 17 17 19 19 19 19 19 18 18 18 18 18 17 17 17 17 17 17 17 17 17 17 17 16 16 15 15 15 15 15 13 12 12 13 12 12 11 11 11 11
17 18 18 17 17 17 19 19 19 18 18 17 17 17 17 17 17 17 17 17 17 17 17 17 17 16 16 15 15 15 15 14 14 13 12 12 12 12 11 11 10 10 10
18 18 17 17 17 17 18 18 18 18 17 17 17 17 17 16 16 16 16 16 16 17 17 16 15 16 15 15 14 14 14 14 13 12 12 12 12 12 11 10 10 10 10
18 18 18 18 17 18 19 19 18 18 17 16 17 17 16 15 15 15 16 16 16 17 17 16 15 15 15 14 14 14 14 14 13 12 11 12 12 11 11 10 10 10 9
18 18 18 17 17 19 19 18 18 16 16 16 17 17 17 16 15 15 15 15 16 16 16 15 15 14 14 14 13 14 13 13 12 12 11 11 11 11 11 10 10 9 9
18 18 19 18 18 18 17 17 17 16 16 16 17 17 17 17 16 15 15 15 15 16 16 15 15 14 14 13 13 13 13 12 12 11 11 11 11 11 10 10 10 9 9
18 18 18 19 17 18 17 16 15 15 15 16 16 17 18 17 16 16 15 15 15 16 15 15 14 14 13 12 12 12 12 11 11 11 10 10 10 9 9 9 9 9 8
18 17 17 16 16 16 16 16 16 15 15 16 16 17 17 17 16 16 16 15 15 16 15 14 14 13 12 12 11 11 11 11 11 10 10 10 9 9 8 8 8 8 8
19 18 17 17 16 16 16 16 15 15 15 16 16 17 17 17 16 16 16 15 15 15 15 14 13 13 11 11 10 10 10 10 10 9 9 9 8 8 7 6 7 7 7
18 19 18 17 17 16 16 15 15 15 15 15 15 16 17 17 16 16 15 15 14 15 14 14 13 12 12 11 9 8 9 9 9 9 8 8 8 7 7 6 6 6 6
15 17 18 17 17 16 16 15 15 15 15 15 15 15 15 17 17 16 15 15 14 14 14 13 12 12 9 9 8 6 6 7 8 8 8 7 7 6 6 6 6 6 5
13 15 15 17 17 17 17 16 16 16 15 15 15 15 15 16 17 17 16 14 14 13 13 12 13 9 9 9 8 7 5 6 6 7 7 7 7 6 6 6 6 6 5
12 12 16 18 17 17 17 16 16 16 16 15 15 15 15 14 15 16 16 15 14 14 14 13 13 11 9 8 9 9 5 5 5 6 6 6 6 6 6 5 5 5 5
12 13 13 14 16 16 15 16 16 16 16 16 15 15 14 14 14 14 15 15 13 14 12 12 13 11 10 8 9 10 10 8 5 4 5 5 6 6 5 5 5 5 5
12 12 13 14 15 16 17 16 16 16 16 16 15 15 14 13 13 14 13 13 13 13 12 11 9 10 10 9 9 8 8 8 8 5 4 3 4 5 5 5 5 5 4
12 12 12 13 13 13 14 15 15 13 15 15 14 14 13 13 12 12 12 12 12 11 11 12 12 11 11 10 10 9 9 8 6 5 3 3 3 4 4 5 5 4 4
Height
751 757 763 770 773 776 777 778 781 786 790 793 795 796 798 801 803 806 809 811 812 813 815 816 818 819 820 821 823 824 826 826 827 827 828 829 830 830 829 829 829 828 828
747 755 759 767 774 777 778 779 780 784 790 793 795 796 799 801 804 806 810 812 814 815 816 818 819 820 821 823 824 826 827 828 828 829 830 830 831 831 831 831 830 830 829
746 751 757 764 771 777 780 779 783 785 789 793 795 797 798 801 804 807 811 813 815 816 817 819 821 822 823 824 825 827 828 829 830 830 831 831 832 832 832 832 831 831 831
751 755 758 765 770 775 781 780 782 785 788 793 795 797 799 801 804 807 810 813 815 817 818 819 820 822 823 825 826 828 829 831 832 832 832 832 833 834 834 833 833 833 832
754 757 760 767 771 776 781 784 783 786 789 792 795 797 799 801 805 807 811 812 815 817 819 819 820 822 824 825 826 828 831 832 833 833 834 834 834 836 836 835 835 835 834
753 759 763 767 771 775 781 786 786 787 790 791 795 798 800 801 805 808 811 812 814 817 818 819 820 822 824 824 826 828 832 834 834 835 835 836 837 838 838 838 837 837 836
752 757 760 764 768 774 780 786 788 790 791 792 795 798 800 802 804 807 810 813 814 814 816 818 820 822 824 825 826 827 831 834 835 836 837 838 839 840 840 840 839 839 839
754 759 762 764 766 772 779 784 788 791 793 794 796 799 800 803 805 807 808 811 814 816 815 816 819 822 824 826 827 828 830 833 836 837 838 839 840 841 842 842 841 840 841
754 759 763 766 768 772 778 782 788 791 794 794 796 798 801 803 806 807 809 810 813 816 816 816 818 820 823 826 827 828 830 834 836 837 838 840 842 842 843 843 843 843 843
757 758 760 766 770 773 777 781 786 791 794 796 796 797 800 802 805 808 809 811 813 815 817 818 820 821 823 826 827 829 830 833 835 837 838 841 842 844 844 845 845 845 845
758 761 762 765 768 773 776 779 784 789 792 795 796 796 798 801 803 806 809 810 813 814 816 818 820 821 824 826 829 831 832 834 836 838 840 842 844 845 845 846 846 846 847
755 757 761 765 769 772 774 777 780 785 789 793 795 796 797 800 802 803 807 809 811 813 815 817 820 822 823 825 828 830 832 834 836 838 841 843 845 846 846 847 847 848 848
749 753 756 759 764 767 772 775 777 781 784 787 790 792 795 798 800 803 805 807 809 812 813 816 818 820 822 824 827 830 832 834 836 838 841 844 846 847 848 848 848 850 851
749 749 752 755 758 762 767 767 768 770 772 775 780 785 789 793 798 800 802 806 808 810 812 814 818 820 822 825 827 829 832 834 836 838 841 845 846 847 848 849 850 851 853
744 746 750 754 755 755 757 764 768 770 772 774 777 780 785 789 794 798 801 803 807 810 812 813 817 820 821 823 826 829 832 834 836 839 842 844 847 848 849 850 851 852 853
738 740 743 746 751 755 757 758 761 766 770 773 776 779 781 785 789 794 799 802 804 809 812 813 815 819 822 823 825 828 831 834 837 839 841 843 846 848 850 851 852 853 854
733 738 736 738 745 747 750 755 761 764 765 767 770 772 777 782 784 788 794 799 802 806 811 814 816 820 821 824 826 829 832 834 837 839 841 843 845 846 849 851 853 854 854
738 737 743 745 748 747 747 754 757 759 762 764 768 770 772 777 781 783 784 793 797 799 806 809 813 818 821 823 825 828 832 835 838 840 841 844 846 847 849 851 853 854 855
729 732 734 739 741 742 751 757 759 757 755 753 756 760 766 770 774 777 778 786 790 793 792 806 810 812 819 823 825 828 831 834 837 840 842 844 845 848 849 851 853 855 856
726 729 733 731 736 741 745 748 750 752 750 754 752 753 757 764 770 772 773 779 786 786 790 792 807 811 814 821 825 830 832 834 837 840 841 843 845 847 849 850 852 855 857
726 729 730 732 731 732 734 736 738 738 746 747 749 750 751 754 757 765 768 772 782 784 777 792 798 807 812 817 823 831 834 836 837 840 842 843 844 846 849 850 851 854 856
733 731 730 729 728 729 728 729 730 734 734 736 738 739 741 743 746 748 755 763 766 776 776 781 784 799 803 809 814 823 834 838 836 838 840 843 843 845 848 851 851 852 855
737 734 731 729 728 727 725 725 728 728 727 727 728 729 729 732 735 737 741 746 754 763 763 769 764 783 789 799 806 805 824 823 829 835 836 840 841 843 846 849 852 852 854
741 737 734 730 725 723 723 720 719 719 717 714 716 720 720 721 724 729 730 733 740 746 749 759 755 767 775 782 796 797 797 803 816 832 833 836 838 840 843 847 849 852 854
742 739 736 732 729 724 719 716 714 711 710 711 709 709 711 713 714 715 720 721 724 728 738 747 750 757 769 773 776 786 790 797 801 809 823 829 835 837 840 843 847 849 852
742 740 737 735 730 725 721 715 709 711 703 700 700 698 700 703 708 707 707 710 708 713 717 727 739 744 751 763 764 773 776 783 791 796 810 823 827 832 836 840 844 847 849
Wind_Speed
30 38 38 34 34 32 31 29 28 28 28 29 29 28 26 25 23 21 20 19 19 18 18 17 16 15 15 16 17 19 17 18 19 19 18 15 15 14 14 12 12 13 14
38 41 40 37 34 31 30 29 28 27 27 27 27 27 26 25 23 22 20 19 19 18 18 17 16 15 15 17 17 18 19 18 17 18 17 17 15 15 14 13 10 10 13
38 42 40 38 35 31 29 29 27 27 26 26 26 26 26 25 23 22 20 19 19 17 17 16 15 14 15 16 17 18 18 16 16 13 12 13 14 14 14 14 13 12 12
36 39 38 37 35 32 29 29 28 27 27 26 26 25 25 25 24 22 20 19 17 17 16 16 15 15 15 15 15 19 17 15 12 11 13 14 15 14 15 14 13 15 16
32 35 35 35 34 31 29 28 29 27 27 26 25 25 25 25 23 22 20 19 17 16 15 15 15 15 15 15 16 18 16 15 11 12 13 13 17 17 17 16 14 11 11
35 34 33 34 34 32 29 27 27 27 27 27 26 25 25 24 23 23 20 18 16 15 15 14 15 15 15 18 19 20 17 14 13 13 14 19 20 17 17 17 17 15 12
38 37 36 36 35 32 30 28 26 26 26 27 26 25 25 24 24 23 22 20 16 16 15 15 16 15 16 19 21 21 18 14 12 13 15 20 19 18 16 16 17 17 14
35 34 33 35 35 34 32 29 27 26 26 25 25 24 23 22 23 24 24 19 15 14 16 16 18 18 18 21 21 20 17 13 12 14 16 20 17 17 16 16 15 16 13
32 33 27 30 32 33 32 30 28 26 26 25 25 23 22 22 24 23 21 16 14 15 16 17 19 20 20 20 20 18 16 13 12 14 18 19 17 16 16 16 16 16 16
27 32 30 27 30 32 32 30 28 27 26 25 25 24 23 23 23 21 18 15 15 16 17 16 18 20 20 20 20 18 16 14 14 15 18 19 17 17 16 16 16 17 17
24 28 30 29 32 34 32 31 29 28 28 26 25 25 23 23 23 21 18 17 17 18 18 17 19 20 21 21 20 19 17 16 14 16 18 18 17 17 16 16 16 17 17
27 31 32 30 29 31 34 33 32 31 29 28 27 26 25 25 24 23 20 18 19 19 19 18 20 22 24 24 23 19 17 15 15 17 18 19 17 16 16 16 16 16 16
31 33 36 36 34 36 36 35 34 33 33 31 30 28 27 26 25 24 23 22 21 21 22 21 24 24 25 24 22 20 17 16 16 19 20 18 17 16 15 16 16 16 16
28 36 38 39 38 40 39 41 41 41 40 38 36 33 31 27 27 26 25 24 23 24 24 23 23 24 24 23 23 21 18 17 17 19 21 19 17 15 15 16 16 15 15
31 36 39 38 41 45 45 43 42 36 34 37 39 36 33 29 29 27 26 25 24 24 25 25 24 25 25 25 23 21 20 18 18 19 22 20 16 16 15 15 15 15 15
34 37 42 44 44 43 44 43 41 35 33 36 39 38 35 33 29 29 27 27 26 25 26 25 25 26 25 25 24 21 20 19 19 20 23 21 18 17 16 15 15 14 14
36 32 41 47 46 47 47 40 33 33 36 40 41 41 38 37 34 31 30 29 27 26 25 25 23 25 26 26 24 22 20 19 18 20 22 22 22 21 18 16 14 14 14
26 30 27 27 33 41 41 34 33 32 37 40 40 41 41 40 36 33 33 32 30 29 28 27 25 26 27 27 25 24 21 19 18 18 20 20 20 19 17 16 15 14 13
30 29 30 32 35 38 34 32 31 33 38 46 46 46 44 42 39 37 35 35 34 33 34 29 28 29 28 27 26 24 22 20 19 18 18 18 17 15 15 16 15 14 13
17 30 30 33 34 34 33 33 34 34 36 37 43 49 47 45 42 40 37 38 36 37 34 34 31 28 31 30 27 23 21 19 18 17 18 17 17 17 15 16 16 16 13
24 15 29 27 32 33 35 35 36 38 30 33 35 40 47 50 48 44 43 38 36 40 40 36 33 32 28 31 29 18 14 16 16 17 17 17 18 17 14 14 14 16 14
24 19 17 17 28 31 34 35 37 34 31 34 36 41 50 52 53 51 49 46 48 47 44 43 40 34 25 38 19 15 3 3 11 17 17 18 19 18 16 13 13 13 11
26 25 16 17 18 27 32 30 28 27 27 29 36 40 47 51 54 55 54 54 50 49 49 51 51 46 29 39 30 11 3 4 9 13 20 20 21 19 17 15 13 10 9
18 21 20 19 10 9 17 27 30 29 30 36 35 35 38 45 51 53 54 57 55 54 48 53 54 50 38 38 35 16 9 16 4 3 11 21 22 22 20 18 15 12 8
20 21 21 20 25 21 13 13 28 31 34 33 32 32 37 40 49 56 54 54 56 56 52 46 42 41 39 38 36 24 20 14 14 5 4 9 18 23 22 20 18 15 11
16 16 18 21 21 23 21 14 12 27 26 29 27 31 32 35 38 48 54 55 58 52 52 56 56 55 50 41 41 37 30 13 12 7 3 6 14 19 23 23 20 18 15
Wind_Direction
182 175 171 173 172 168 164 158 153 150 151 153 154 151 151 150 146 144 143 138 133 130 125 126 122 120 121 121 118 117 114 109 101 96 89 86 78 76 75 72 71 60 66
174 175 173 174 174 172 168 162 158 155 155 156 155 152 151 148 145 145 143 137 132 128 122 120 117 120 124 122 123 119 114 109 101 99 94 91 79 73 69 60 80 79 71
175 173 173 175 175 174 172 165 161 158 158 157 155 152 150 148 146 144 142 138 132 127 122 119 117 121 126 128 127 124 122 121 115 108 96 81 76 74 78 73 68 80 78
174 172 172 176 176 176 175 169 166 164 162 161 159 155 152 149 148 146 144 138 133 129 126 122 124 131 129 130 127 138 136 125 108 97 82 79 81 74 78 79 80 73 72
169 172 171 177 178 178 178 175 170 170 167 165 163 160 157 154 152 149 147 140 137 133 129 129 135 135 134 134 127 144 146 130 122 96 85 75 84 81 79 78 78 79 86
174 176 173 178 179 181 183 182 177 173 171 168 167 166 163 159 156 153 151 146 143 139 135 139 136 136 137 143 138 136 135 127 112 95 83 86 84 89 83 81 81 81 84
176 180 181 182 182 184 185 186 183 179 176 171 170 170 168 165 164 160 155 158 153 149 149 145 137 138 140 145 144 139 135 124 108 94 90 97 95 90 91 87 87 82 81
178 183 183 184 184 185 187 188 188 185 181 177 175 175 172 170 172 168 169 173 156 156 156 154 146 145 145 144 145 141 138 130 113 102 98 102 100 95 88 82 82 77 79
185 187 185 184 185 186 189 189 190 190 187 183 180 177 179 171 177 177 180 177 168 160 164 162 156 157 158 153 152 147 139 130 119 110 106 108 104 100 96 89 84 82 79
193 192 187 183 188 189 190 191 192 193 192 190 186 182 183 181 181 187 189 181 171 168 171 166 159 162 162 160 159 155 150 140 128 120 116 115 111 106 100 94 90 86 80
199 198 193 188 190 194 194 193 194 197 197 196 193 190 189 187 187 191 193 185 178 173 177 174 166 165 163 160 159 154 148 138 126 120 119 119 114 111 103 97 91 86 83
200 201 200 195 192 195 198 196 195 197 199 200 201 198 199 197 194 193 193 190 184 178 181 178 172 167 167 165 162 158 151 140 134 131 123 124 120 113 105 98 93 88 86
201 201 202 200 199 199 201 200 199 198 200 202 204 202 200 206 196 196 194 191 185 183 183 180 177 176 174 170 162 160 153 146 141 137 131 129 126 118 107 101 97 95 93
206 208 206 207 202 204 205 204 203 201 201 201 202 201 204 202 198 199 198 195 190 186 186 184 180 176 176 173 168 163 158 154 149 145 137 134 132 124 112 108 105 101 96
210 212 214 209 209 207 206 208 208 203 202 203 204 202 205 209 203 203 201 198 194 191 189 183 179 177 175 171 169 167 160 156 153 149 144 140 139 130 118 112 108 104 99
217 215 215 215 215 213 211 209 208 206 205 206 208 206 206 213 211 208 206 202 198 196 191 190 185 182 177 174 169 168 163 158 154 151 148 145 144 138 123 117 111 104 99
222 216 216 217 214 214 213 211 209 210 209 212 212 209 211 215 214 212 209 207 202 199 196 194 188 186 179 175 170 167 162 158 155 153 154 154 146 139 127 120 115 109 102
233 225 222 217 217 216 213 211 213 213 213 214 216 215 213 217 217 215 209 212 206 198 195 194 189 183 181 177 171 166 162 158 155 154 159 161 160 149 128 122 120 115 109
235 226 220 217 219 217 219 222 223 219 215 215 217 218 217 218 219 220 214 212 207 200 190 196 191 188 181 177 171 166 164 163 159 157 159 161 163 159 147 126 121 118 115
246 230 230 218 219 220 217 220 224 224 222 216 217 220 219 218 223 221 218 214 209 198 191 189 195 189 184 176 166 162 163 165 166 166 162 160 158 157 155 141 135 126 115
31 244 227 224 224 212 211 210 218 220 224 221 219 220 223 221 218 223 223 212 214 206 192 193 189 189 176 175 154 147 158 174 175 176 173 169 165 165 166 151 142 132 120
24 7 1 270 230 222 219 225 224 225 224 222 219 221 225 223 221 217 219 215 209 206 200 194 189 179 175 179 161 138 145 181 203 193 186 183 176 174 175 171 158 145 134
17 15 359 310 303 249 234 228 231 231 225 217 221 220 223 220 221 218 219 216 213 210 202 202 190 188 172 179 177 154 152 189 139 199 200 196 186 183 183 181 175 163 151
21 23 12 8 347 307 323 242 225 225 224 226 225 224 219 217 219 221 218 216 213 207 201 202 194 191 181 179 185 201 164 144 157 149 199 201 197 191 189 187 186 178 171
13 18 18 22 17 6 324 306 248 234 237 237 229 224 220 220 218 221 218 214 209 205 204 199 190 186 190 182 182 180 160 158 145 145 154 171 198 199 196 196 192 190 182
354 2 4 0 6 15 7 351 15 359 263 234 229 217 215 218 218 217 217 214 209 204 199 204 202 194 192 193 187 189 173 166 167 149 120 149 164 191 198 200 200 196 190